Вернуться в каталог

STARLINK-4090

АктивенСвязьVLEO
NORAD 53165·PAYLOAD·🇺🇸 United States

Запущен Jul 17, 2022 с Cape Canaveral Space Force Station

Loading…

Ближайшие Пролёты (ближайшие 24 часа)

TLE

СвежийSource: CelesTrak SupGP

Эпоха: Sep 14, 2026, 22:05 UTC

1 53165C 22083AK  26257.92062500 -.00001848  00000+0 -52844-4 0  2577
2 53165  53.1603  29.7929 0001148  73.5920 215.5465 15.35415191    12

Отслеживайте STARLINK-4090 в реальном времени с AllMySat

Download on the App Store